H1 CPF 2 NER 2021 5 25 9 145 01 glonass137 H2 1705501 9137 42939 2021 5 25 0 0 0 2021 5 28 23 45 0 900 1 1 0 0 0 1 H9 10 0 59359 0.00000 0 -25013795.267 -4252554.317 2551207.956 10 0 59359 900.00000 0 -25150837.397 -4150179.656 -649444.325 10 0 59359 1800.00000 0 -24889269.039 -3993024.476 -3837462.928 10 0 59359 2700.00000 0 -24229389.074 -3835838.829 -6950838.264 10 0 59359 3600.00000 0 -23184697.143 -3732469.976 -9929000.817 10 0 59359 4500.00000 0 -21781405.506 -3733341.812 -12714006.544 10 0 59359 5400.00000 0 -20057434.302 -3883084.087 -15251670.819 10 0 59359 6300.00000 0 -18060931.960 -4218413.039 -17492628.145 10 0 59359 7200.00000 0 -15848382.931 -4766354.181 -19393296.398 10 0 59359 8100.00000 0 -13482382.113 -5542883.405 -20916726.662 10 0 59359 9000.00000 0 -11029169.230 -6552044.697 -22033322.066 10 0 59359 9900.00000 0 -8556026.440 -7785582.470 -22721411.799 10 0 59359 10800.00000 0 -6128647.746 -9223104.695 -22967669.525 10 0 59359 11700.00000 0 -3808589.728 -10832770.639 -22767368.470 10 0 59359 12600.00000 0 -1650909.474 -12572474.799 -22124468.651 10 0 59359 13500.00000 0 297912.611 -14391477.887 -21051534.971 10 0 59359 14400.00000 0 2001679.557 -16232416.849 -19569488.050 10 0 59359 15300.00000 0 3435744.170 -18033610.034 -17707192.896 10 0 59359 16200.00000 0 4587783.569 -19731561.135 -15500893.528 10 0 59359 17100.00000 0 5458051.274 -21263557.307 -12993504.619 10 0 59359 18000.00000 0 6059097.935 -22570252.690 -10233774.084 10 0 59359 18900.00000 0 6414974.214 -23598129.154 -7275332.936 10 0 59359 19800.00000 0 6559951.009 -24301731.285 -4175651.028 10 0 59359 20700.00000 0 6536812.389 -24645581.850 -994919.230 10 0 59359 21600.00000 0 6394794.601 -24605697.656 2205120.036 10 0 59359 22500.00000 0 6187259.190 -24170642.402 5362370.955 10 0 59359 23400.00000 0 5969199.335 -23342072.584 8415587.660 10 0 59359 24300.00000 0 5794685.260 -22134753.820 11305559.367 10 0 59359 25200.00000 0 5714356.993 -20576046.949 13976254.444 10 0 59359 26100.00000 0 5773070.442 -18704885.545 16375901.445 10 0 59359 27000.00000 0 6007796.175 -16570287.441 18457986.673 10 0 59359 27900.00000 0 6445859.494 -14229462.052 20182149.585 10 0 59359 28800.00000 0 7103596.022 -11745591.933 21514959.397 10 0 59359 29700.00000 0 7985479.635 -9185380.144 22430558.594 10 0 59359 30600.00000 0 9083759.946 -6616464.471 22911161.604 10 0 59359 31500.00000 0 10378625.333 -4104804.959 22947399.375 10 0 59359 32400.00000 0 11838885.827 -1712152.055 22538503.484 10 0 59359 33300.00000 0 13423148.581 506300.634 21692326.099 10 0 59359 34200.00000 0 15081438.165 2503982.449 20425195.007 10 0 59359 35100.00000 0 16757195.356 4244645.769 18761605.855 10 0 59359 36000.00000 0 18389572.137 5703630.098 16733756.641 10 0 59359 36900.00000 0 19915927.885 6868638.053 14380932.474 10 0 59359 37800.00000 0 21274422.936 7739991.377 11748751.532 10 0 59359 38700.00000 0 22406601.152 8330356.711 8888285.893 10 0 59359 39600.00000 0 23259852.981 8663952.979 5855073.707 10 0 59359 40500.00000 0 23789655.092 8775274.198 2708041.503 10 0 59359 41400.00000 0 23961491.639 8707382.018 -491642.517 10 0 59359 42300.00000 0 23752375.287 8509840.679 -3681761.485 10 0 59359 43200.00000 0 23151902.881 8236382.484 -6800265.452 10 0 59359 44100.00000 0 22162800.231 7942403.443 -9786485.161 10 0 59359 45000.00000 0 20800932.064 7682396.113 -12582319.408 10 0 59359 45900.00000 0 19094775.962 7507429.411 -15133372.113 10 0 59359 46800.00000 0 17084381.733 7462783.134 -17390016.244 10 0 59359 47700.00000 0 14819859.562 7585838.267 -19308363.309 10 0 59359 48600.00000 0 12359460.065 7904313.179 -20851119.272 10 0 59359 49500.00000 0 9767326.488 8434920.963 -21988310.259 10 0 59359 50400.00000 0 7111012.953 9182505.210 -22697864.021 10 0 59359 51300.00000 0 4458872.227 10139691.128 -22966036.218 10 0 59359 52200.00000 0 1877421.628 11287067.122 -22787673.689 10 0 59359 53100.00000 0 -571203.510 12593889.492 -22166309.970 10 0 59359 54000.00000 0 -2831603.476 14019280.879 -21114091.665 10 0 59359 54900.00000 0 -4857177.800 15513872.393 -19651537.382 10 0 59359 55800.00000 0 -6611813.928 17021820.529 -17807134.171 10 0 59359 56700.00000 0 -8071131.957 18483114.415 -15616779.461 10 0 59359 57600.00000 0 -9223235.028 19836076.620 -13123079.412 10 0 59359 58500.00000 0 -10068935.589 21019952.447 -10374517.406 10 0 59359 59400.00000 0 -10621449.904 21977479.182 -7424509.013 10 0 59359 60300.00000 0 -10905575.314 22657327.193 -4330361.831 10 0 59359 61200.00000 0 -10956386.449 23016310.265 -1152160.697 10 0 59359 62100.00000 0 -10817506.863 23021272.441 2048399.806 10 0 59359 63000.00000 0 -10539030.194 22650571.993 5209212.710 10 0 59359 63900.00000 0 -10175179.541 21895100.286 8268962.317 10 0 59359 64800.00000 0 -9781804.596 20758792.792 11168310.792 10 0 59359 65700.00000 0 -9413822.595 19258610.707 13851044.747 10 0 59359 66600.00000 0 -9122711.269 17423993.862 16265159.835 10 0 59359 67500.00000 0 -8954159.542 15295807.485 18363862.788 10 0 59359 68400.00000 0 -8945974.852 12924826.337 20106472.184 10 0 59359 69300.00000 0 -9126335.084 10369818.753 21459201.143 10 0 59359 70200.00000 0 -9512458.617 7695309.520 22395807.602 10 0 59359 71100.00000 0 -10109748.485 4969113.456 22898100.255 10 0 59359 72000.00000 0 -10911447.005 2259741.078 22956290.826 10 0 59359 72900.00000 0 -11898815.997 -366217.271 22569186.133 10 0 59359 73800.00000 0 -13041836.010 -2846621.562 21744216.136 10 0 59359 74700.00000 0 -14300396.345 -5126122.527 20497297.069 10 0 59359 75600.00000 0 -15625927.261 -7158216.346 18852531.629 10 0 59359 76500.00000 0 -16963407.197 -8906928.995 16841751.111 10 0 59359 77400.00000 0 -18253661.869 -10348060.746 14503907.399 10 0 59359 78300.00000 0 -19435859.605 -11469939.497 11884325.526 10 0 59359 79200.00000 0 -20450098.590 -12273651.855 9033830.407 10 0 59359 80100.00000 0 -21239977.284 -12772742.604 6007764.017 10 0 59359 81000.00000 0 -21755039.532 -12992395.588 2864911.725 10 0 59359 81900.00000 0 -21952990.691 -12968130.886 -333641.486 10 0 59359 82800.00000 0 -21801590.365 -12744073.742 -3525702.269 10 0 59359 83700.00000 0 -21280140.824 -12370868.996 -6649183.956 10 0 59359 84600.00000 0 -20380507.041 -11903330.012 -9643321.022 10 0 59359 85500.00000 0 -19107624.198 -11397922.413 -12449858.342 10 0 59360 0.00000 0 -17479470.212 -10910190.062 -15014191.277 10 0 59360 900.00000 0 -15526503.085 -10492233.437 -17286433.939 10 0 59360 1800.00000 0 -13290587.069 -10190347.030 -19222393.551 10 0 59360 2700.00000 0 -10823450.560 -10042918.057 -20784432.565 10 0 59360 3600.00000 0 -8184741.283 -10078674.025 -21942201.125 10 0 59360 4500.00000 0 -5439759.008 -10315354.834 -22673225.922 10 0 59360 5400.00000 0 -2656960.463 -10758865.102 -22963344.376 10 0 59360 6300.00000 0 94660.003 -11402942.735 -22806976.094 10 0 59360 7200.00000 0 2748205.200 -12229357.692 -22207226.748 10 0 59360 8100.00000 0 5241416.292 -13208632.557 -21175822.800 10 0 59360 9000.00000 0 7519015.406 -14301254.554 -19732878.606 10 0 59360 9900.00000 0 9534753.024 -15459327.924 -17906500.708 10 0 59360 10800.00000 0 11253076.059 -16628597.103 -15732237.135 10 0 59360 11700.00000 0 12650348.414 -17750755.487 -13252382.467 10 0 59360 12600.00000 0 13715574.536 -18765942.586 -10515152.347 10 0 59360 13500.00000 0 14450597.363 -19615324.368 -7573743.549 10 0 59360 14400.00000 0 14869764.012 -20243648.040 -4485297.964 10 0 59360 15300.00000 0 14999074.927 -20601663.654 -1309790.993 10 0 59360 16200.00000 0 14874853.776 -20648310.387 1891133.943 10 0 59360 17100.00000 0 14541995.537 -20352575.392 5055361.875 10 0 59360 18000.00000 0 14051867.765 -19694947.072 8121510.165 10 0 59360 18900.00000 0 13459954.332 -18668401.398 11030116.469 10 0 59360 19800.00000 0 12823341.605 -17278879.700 13724787.824 10 0 59360 20700.00000 0 12198153.275 -15545237.627 16153288.713 10 0 59360 21600.00000 0 11637041.996 -13498666.962 18268547.600 10 0 59360 22500.00000 0 11186843.234 -11181613.820 20029563.031 10 0 59360 23400.00000 0 10886489.789 -8646237.602 21402192.447 10 0 59360 24300.00000 0 10765274.321 -5952473.884 22359809.227 10 0 59360 25200.00000 0 10841532.685 -3165780.565 22883815.933 10 0 59360 26100.00000 0 11121803.261 -354659.689 22964004.299 10 0 59360 27000.00000 0 11600497.790 2411943.618 22598755.288 10 0 59360 27900.00000 0 12260097.946 5067258.595 21795075.289 10 0 59360 28800.00000 0 13071870.140 7549215.256 20568467.372 10 0 59360 29700.00000 0 13997069.442 9802776.071 18942639.473 10 0 59360 30600.00000 0 14988583.101 11781977.013 16949054.218 10 0 59360 31500.00000 0 15992945.568 13451593.659 14626328.145 10 0 59360 32400.00000 0 16952641.159 14788363.505 12019490.917 10 0 59360 33300.00000 0 17808598.011 15781713.811 9179117.947 10 0 59360 34200.00000 0 18502768.490 16433964.730 6160352.619 10 0 59360 35100.00000 0 18980687.110 16759999.494 3021836.656 10 0 59360 36000.00000 0 19193897.511 16786415.784 -175430.674 10 0 59360 36900.00000 0 19102145.115 16550194.400 -3369282.007 10 0 59360 37800.00000 0 18675241.792 16096941.896 -6497596.321 10 0 59360 38700.00000 0 17894522.443 15478782.055 -9499514.018 10 0 59360 39600.00000 0 16753830.721 14751986.052 -12316628.042 10 0 59360 40500.00000 0 15259990.979 13974442.375 -14894127.037 10 0 59360 41400.00000 0 13432745.344 13203074.312 -17181867.585 10 0 59360 42300.00000 0 11304157.554 12491314.951 -19135353.993 10 0 59360 43200.00000 0 8917507.717 11886747.056 -20716606.331 10 0 59360 44100.00000 0 6325723.576 11429007.924 -21894899.720 10 0 59360 45000.00000 0 3589413.445 11148047.915 -22647360.637 10 0 59360 45900.00000 0 774582.452 11062816.148 -22959408.957 10 0 59360 46800.00000 0 -2049873.087 11180428.602 -22825037.572 10 0 59360 47700.00000 0 -4814789.195 11495853.425 -22246924.571 10 0 59360 48600.00000 0 -7453366.993 11992126.316 -21236376.239 10 0 59360 49500.00000 0 -9903705.826 12641086.523 -19813102.289 10 0 59360 50400.00000 0 -12111132.042 13404602.058 -18004827.967 10 0 59360 51300.00000 0 -14030227.457 14236232.142 -15846750.716 10 0 59360 52200.00000 0 -15626474.107 15083256.509 -13380852.009 10 0 59360 53100.00000 0 -16877447.895 15888985.746 -10655077.901 10 0 59360 54000.00000 0 -17773512.724 16595255.036 -7722404.268 10 0 59360 54900.00000 0 -18317987.541 17144995.888 -4639805.048 10 0 59360 55800.00000 0 -18526780.801 17484777.164 -1467143.775 10 0 59360 56700.00000 0 -18427509.216 17567208.005 1733989.841 10 0 59360 57600.00000 0 -18058139.321 17353101.216 4901475.427 10 0 59360 58500.00000 0 -17465210.169 16813305.724 7973866.089 10 0 59360 59400.00000 0 -16701713.026 15930130.777 10891577.727 10 0 59360 60300.00000 0 -15824718.026 14698301.694 13598040.531 10 0 59360 61200.00000 0 -14892848.066 13125406.633 16040790.544 10 0 59360 62100.00000 0 -13963706.392 11231815.148 18172480.606 10 0 59360 63000.00000 0 -13091365.859 9050071.217 19951791.749 10 0 59360 63900.00000 0 -12324025.030 6623785.231 21344228.046 10 0 59360 64800.00000 0 -11701929.052 4006070.011 22322780.371 10 0 59360 65700.00000 0 -11255642.045 1257584.635 22868446.883 10 0 59360 66600.00000 0 -11004743.070 -1555733.981 22970600.677 10 0 59360 67500.00000 0 -10957000.105 -4365159.084 22627197.783 10 0 59360 68400.00000 0 -11108056.631 -7101779.928 21844821.450 10 0 59360 69300.00000 0 -11441644.220 -9699118.662 20638561.510 10 0 59360 70200.00000 0 -11930312.658 -12095650.907 19031730.526 10 0 59360 71100.00000 0 -12536647.583 -14237126.344 17055421.302 10 0 59360 72000.00000 0 -13214925.170 -16078593.483 14747913.363 10 0 59360 72900.00000 0 -13913134.901 -17586044.810 12153938.856 10 0 59360 73800.00000 0 -14575285.754 -18737613.986 9323821.127 10 0 59360 74700.00000 0 -15143898.837 -19524275.098 6312502.057 10 0 59360 75600.00000 0 -15562581.151 -19950014.815 3178476.559 10 0 59360 76500.00000 0 -15778571.379 -20031470.295 -17345.181 10 0 59360 77400.00000 0 -15745149.311 -19797048.196 -3212825.280 10 0 59360 78300.00000 0 -15423805.958 -19285562.261 -6345811.929 10 0 59360 79200.00000 0 -14786081.348 -18544447.375 -9355355.048 10 0 59360 80100.00000 0 -13814990.918 -17627626.076 -12182899.185 10 0 59360 81000.00000 0 -12505978.872 -16593118.333 -14773429.635 10 0 59360 81900.00000 0 -10867356.875 -15500496.297 -17076548.733 10 0 59360 82800.00000 0 -8920208.398 -14408292.174 -19047460.715 10 0 59360 83700.00000 0 -6697761.625 -13371469.259 -20647845.701 10 0 59360 84600.00000 0 -4244256.237 -12439063.161 -21846605.733 10 0 59360 85500.00000 0 -1613350.842 -11652092.866 -22620468.422 10 0 59361 0.00000 0 1133863.029 -11041829.520 -22954436.842 10 0 59361 900.00000 0 3931158.284 -10628495.763 -22842077.299 10 0 59361 1800.00000 0 6709685.218 -10420449.023 -22285639.878 10 0 59361 2700.00000 0 9400596.359 -10413884.019 -21296009.727 10 0 59361 3600.00000 0 11937674.517 -10593064.510 -19892490.502 10 0 59361 4500.00000 0 14259854.980 -10931075.008 -18102424.308 10 0 59361 5400.00000 0 16313537.787 -11391059.459 -15960655.743 10 0 59361 6300.00000 0 18054594.634 -11927894.161 -13508850.529 10 0 59361 7200.00000 0 19449987.660 -12490223.762 -10794682.126 10 0 59361 8100.00000 0 20478933.620 -13022773.841 -7870902.190 10 0 59361 9000.00000 0 21133566.143 -13468842.076 -4794313.100 10 0 59361 9900.00000 0 21419069.494 -13772862.342 -1624662.765 10 0 59361 10800.00000 0 21353279.726 -13882933.166 1576516.611 10 0 59361 11700.00000 0 20965771.277 -13753203.524 4747102.987 10 0 59361 12600.00000 0 20296468.612 -13346015.047 7825588.712 10 0 59361 13500.00000 0 19393842.297 -12633710.066 10752271.073 10 0 59361 14400.00000 0 18312766.111 -11600028.996 13470406.156 10 0 59361 15300.00000 0 17112125.774 -10241037.917 15927303.825 10 0 59361 16200.00000 0 15852279.939 -8565546.853 18075343.070 10 0 59361 17100.00000 0 14592479.970 -6595000.480 19872888.688 10 0 59361 18000.00000 0 13388356.376 -4362844.936 21285092.220 10 0 59361 18900.00000 0 12289576.736 -1913396.008 22284562.429 10 0 59361 19800.00000 0 11337772.561 699745.524 22851893.073 10 0 59361 20700.00000 0 10564821.265 3415666.884 22976038.230 10 0 59361 21600.00000 0 9991554.576 6168424.258 22654528.274 10 0 59361 22500.00000 0 9626947.007 8889538.625 21893522.276 10 0 59361 23400.00000 0 9467818.241 11510604.254 20707695.490 10 0 59361 24300.00000 0 9499061.830 13965902.948 19119963.500 10 0 59361 25200.00000 0 9694390.888 16194916.516 17161047.443 10 0 59361 26100.00000 0 10017569.775 18144633.714 14868887.772 10 0 59361 27000.00000 0 10424080.380 19771556.104 12287916.854 10 0 59361 27900.00000 0 10863153.164 21043319.414 9468203.547 10 0 59361 28800.00000 0 11280077.496 21939862.589 6464485.650 10 0 59361 29700.00000 0 11618693.671 22454095.530 3335108.570 10 0 59361 30600.00000 0 11823960.917 22592037.380 140890.642 10 0 59361 31500.00000 0 11844492.111 22372419.406 -3056062.482 10 0 59361 32400.00000 0 11634946.957 21825769.300 -6193570.890 10 0 59361 33300.00000 0 11158181.159 20993015.640 -9210596.542 10 0 59361 34200.00000 0 10387059.267 19923671.727 -12048437.900 10 0 59361 35100.00000 0 9305853.150 18673675.942 -14651878.971 10 0 59361 36000.00000 0 7911165.524 17302980.278 -16970269.635 10 0 59361 36900.00000 0 6212338.247 15872989.378 -18958515.589 10 0 59361 37800.00000 0 4231326.938 14443958.560 -20577958.316 10 0 59361 38700.00000 0 2002045.998 13072460.753 -21797127.874 10 0 59361 39600.00000 0 -430789.373 11809029.183 -22592353.916 10 0 59361 40500.00000 0 -3013276.535 10696074.821 -22948223.409 10 0 59361 41400.00000 0 -5684327.463 9766165.742 -22857876.547 10 0 59361 42300.00000 0 -8377976.451 9040740.117 -22323135.549 10 0 59361 43200.00000 0 -11025897.858 8529306.021 -21354464.257 10 0 59361 44100.00000 0 -13560029.565 8229160.689 -19970759.685 10 0 59361 45000.00000 0 -15915193.315 8125639.926 -18198979.814 10 0 59361 45900.00000 0 -18031603.453 8192886.072 -16073615.049 10 0 59361 46800.00000 0 -19857160.152 8395101.074 -13636013.705 10 0 59361 47700.00000 0 -21349432.133 8688230.865 -10933574.711 10 0 59361 48600.00000 0 -22477247.121 9022009.154 -8018823.398 10 0 59361 49500.00000 0 -23221824.406 9342273.552 -4948388.378 10 0 59361 50400.00000 0 -23577403.036 9593455.544 -1781899.625 10 0 59361 51300.00000 0 -23551340.662 9721138.632 1419170.508 10 0 59361 52200.00000 0 -23163679.902 9674576.070 4592700.715 10 0 59361 53100.00000 0 -22446201.554 9409061.550 7677125.039 10 0 59361 54000.00000 0 -21441005.423 8888052.467 10612624.655 10 0 59361 54900.00000 0 -20198679.049 8084955.868 13342284.077 10 0 59361 55800.00000 0 -18776131.786 6984501.512 15813189.507 10 0 59361 56700.00000 0 -17234185.340 5583643.841 17977448.548 10 0 59361 57600.00000 0 -15635021.700 3891954.280 19793112.110 10 0 59361 58500.00000 0 -14039595.064 1931486.634 21224981.366 10 0 59361 59400.00000 0 -12505115.462 -263879.931 22245284.901 10 0 59361 60300.00000 0 -11082708.572 -2649594.256 22834213.721 10 0 59361 61200.00000 0 -9815348.725 -5172036.298 22980304.228 10 0 59361 62100.00000 0 -8736150.650 -7770504.926 22680662.135 10 0 59361 63000.00000 0 -7867090.581 -10379509.472 21941022.959 10 0 59361 63900.00000 0 -7218209.695 -12931271.300 20775647.619 10 0 59361 64800.00000 0 -6787332.763 -15358332.949 19207054.554 10 0 59361 65700.00000 0 -6560313.649 -17596167.543 17265592.643 10 0 59361 66600.00000 0 -6511797.360 -19585680.709 14988862.247 10 0 59361 67500.00000 0 -6606466.705 -21275501.343 12420994.526 10 0 59361 68400.00000 0 -6800721.221 -22623965.857 9611802.016 10 0 59361 69300.00000 0 -7044717.643 -23600712.875 6615816.256 10 0 59361 70200.00000 0 -7284685.678 -24187821.380 3491230.650 10 0 59361 71100.00000 0 -7465420.827 -24380444.249 298768.935 10 0 59361 72000.00000 0 -7532848.225 -24186910.143 -2899498.474 10 0 59361 72900.00000 0 -7436548.035 -23628289.270 -6041366.749 10 0 59361 73800.00000 0 -7132134.353 -22737441.165 -9065713.251 10 0 59361 74700.00000 0 -6583385.613 -21557584.674 -11913693.817 10 0 59361 75600.00000 0 -5764034.919 -20140450.682 -14529894.655 10 0 59361 76500.00000 0 -4659143.153 -18544095.785 -16863416.613 10 0 59361 77400.00000 0 -3265995.510 -16830469.479 -18868870.094 10 0 59361 78300.00000 0 -1594482.321 -15062837.709 -20507260.895 10 0 59361 79200.00000 0 333053.094 -13303171.456 -21746749.632 10 0 59361 80100.00000 0 2482494.160 -11609610.286 -22563270.064 10 0 59361 81000.00000 0 4809130.814 -10034107.268 -22940994.572 10 0 59361 81900.00000 0 7259290.743 -8620353.667 -22872638.203 10 0 59361 82800.00000 0 9772354.521 -7402069.854 -22359595.744 10 0 59361 83700.00000 0 12283071.110 -6401733.153 -21411909.630 10 0 59361 84600.00000 0 14724077.691 -5629794.813 -20048069.650 10 0 59361 85500.00000 0 17028519.134 -5084417.714 -18294648.590 10 0 59362 0.00000 0 19132658.378 -4751744.392 -16185781.178 10 0 59362 900.00000 0 20978369.220 -4606682.763 -13762496.163 10 0 59362 1800.00000 0 22515408.407 -4614174.922 -11071915.509 10 0 59362 2700.00000 0 23703371.721 -4730894.728 -8166335.259 10 0 59362 3600.00000 0 24513254.302 -4907300.932 -5102206.871 10 0 59362 4500.00000 0 24928549.544 -5089958.653 -1939038.749 10 0 59362 5400.00000 0 24945841.890 -5224030.104 1261760.428 10 0 59362 6300.00000 0 24574869.416 -5255828.745 4438073.929 10 0 59362 7200.00000 0 23838054.598 -5135328.522 7528281.204 10 0 59362 8100.00000 0 22769523.662 -4818521.748 10472450.785 10 0 59362 9000.00000 0 21413656.347 -4269525.811 13213498.738 10 0 59362 9900.00000 0 19823227.419 -3462349.605 15698290.326 10 0 59362 10800.00000 0 18057217.979 -2382244.846 17878664.049 10 0 59362 11700.00000 0 16178388.182 -1026584.962 19712358.788 10 0 59362 12600.00000 0 14250712.583 594766.017 21163826.789 10 0 59362 13500.00000 0 12336784.672 2459611.030 22204917.516 10 0 59362 14400.00000 0 10495298.150 4534098.608 22815419.901 10 0 59362 15300.00000 0 8778709.161 6773895.651 22983452.974 10 0 59362 16200.00000 0 7231175.990 9125807.044 22705697.722 10 0 59362 17100.00000 0 5886861.181 11529776.402 21987465.674 10 0 59362 18000.00000 0 4768666.158 13921186.234 20842602.611 10 0 59362 18900.00000 0 3887450.470 16233363.390 19293228.655 10 0 59362 19800.00000 0 3241767.798 18400186.803 17369318.922 10 0 59362 20700.00000 0 2818129.488 20358689.815 15108131.859 10 0 59362 21600.00000 0 2591784.348 22051549.231 12553495.305 10 0 59362 22500.00000 0 2527981.801 23429357.445 9754963.104 10 0 59362 23400.00000 0 2583665.123 24452582.458 6766857.930 10 0 59362 24300.00000 0 2709523.102 25093133.398 3647218.389 10 0 59362 25200.00000 0 2852313.088 25335465.335 456670.673 10 0 59362 26100.00000 0 2957356.608 25177176.364 -2742753.047 10 0 59362 27000.00000 0 2971101.079 24629071.315 -5888826.034 10 0 59362 27900.00000 0 2843638.074 23714688.961 -8920343.949 10 0 59362 28800.00000 0 2531070.315 22469312.383 -11778322.747 10 0 59362 29700.00000 0 1997625.801 20938504.094 -14407153.334 10 0 59362 30600.00000 0 1217428.251 19176227.710 -16755689.776 10 0 59362 31500.00000 0 175847.680 17242635.456 -18778249.146 10 0 59362 32400.00000 0 -1129627.207 15201614.809 -20435503.245 10 0 59362 33300.00000 0 -2689032.798 13118197.575 -21695244.685 10 0 59362 34200.00000 0 -4480106.528 11055940.290 -22533012.482 10 0 59362 35100.00000 0 -6468988.590 9074385.673 -22932565.324 10 0 59362 36000.00000 0 -8611420.786 7226711.125 -22886193.667 10 0 59362 36900.00000 0 -10854392.964 5557662.150 -22394865.067 10 0 59362 37800.00000 0 -13138168.756 4101856.284 -21468200.345 10 0 59362 38700.00000 0 -15398606.506 2882527.311 -20124281.423 10 0 59362 39600.00000 0 -17569678.782 1910761.058 -18389294.830 10 0 59362 40500.00000 0 -19586085.660 1185253.202 -16297018.039 10 0 59362 41400.00000 0 -21385852.981 692597.654 -13888158.654 10 0 59362 42300.00000 0 -22912807.319 408091.797 -11209559.499 10 0 59362 43200.00000 0 -24118824.614 297023.134 -8313285.095 10 0 59362 44100.00000 0 -24965758.752 316381.727 -5255607.416 10 0 59362 45000.00000 0 -25426969.816 416924.977 -2095910.872 10 0 59362 45900.00000 0 -25488388.442 545506.481 1104462.025 10 0 59362 46800.00000 0 -25149072.415 647569.730 4283401.624 10 0 59362 47700.00000 0 -24421232.674 669700.653 7379235.344 10 0 59362 48600.00000 0 -23329728.347 562130.681 10331921.658 10 0 59362 49500.00000 0 -21911052.444 281084.264 13084210.736 10 0 59362 50400.00000 0 -20211851.055 -209128.449 15582749.409 10 0 59362 51300.00000 0 -18287038.240 -934362.287 17779109.466 10 0 59362 52200.00000 0 -16197585.356 -1909305.056 19630719.987 10 0 59362 53100.00000 0 -14008076.826 -3136619.322 21101686.276 10 0 59362 54000.00000 0 -11784133.775 -4606594.727 22163480.390 10 0 59362 54900.00000 0 -9589812.043 -6297326.397 22795490.594 10 0 59362 55800.00000 0 -7485082.059 -8175413.164 22985419.644 10 0 59362 56700.00000 0 -5523494.392 -10197147.904 22729524.587 10 0 59362 57600.00000 0 -3750127.080 -12310151.943 22032693.443 10 0 59362 58500.00000 0 -2199899.260 -14455386.962 20908357.025 10 0 59362 59400.00000 0 -896320.474 -16569462.109 19378237.015 10 0 59362 60300.00000 0 149272.903 -18587141.542 17471934.312 10 0 59362 61200.00000 0 937962.688 -20443948.820 15226364.663 10 0 59362 62100.00000 0 1482965.578 -22078760.140 12685051.442 10 0 59362 63000.00000 0 1808833.686 -23436278.416 9897288.311 10 0 59362 63900.00000 0 1950172.767 -24469284.484 6917187.246 10 0 59362 64800.00000 0 1949932.493 -25140570.767 3802629.913 10 0 59362 65700.00000 0 1857341.312 -25424475.581 614142.532 10 0 59362 66600.00000 0 1725573.743 -25307952.807 -2586283.649 10 0 59362 67500.00000 0 1609249.566 -24791131.126 -5736402.879 10 0 59362 68400.00000 0 1561871.764 -23887338.532 -8774932.207 10 0 59362 69300.00000 0 1633312.838 -22622590.468 -11642750.920 10 0 59362 70200.00000 0 1867457.171 -21034562.741 -14284057.923 10 0 59362 71100.00000 0 2300100.556 -19171092.207 -16647463.780 10 0 59362 72000.00000 0 2957196.967 -17088268.254 -18686995.413 10 0 59362 72900.00000 0 3853527.861 -14848195.342 -20362993.584 10 0 59362 73800.00000 0 4991851.293 -12516520.562 -21642885.528 10 0 59362 74700.00000 0 6362567.634 -10159829.981 -22501817.752 10 0 59362 75600.00000 0 7943916.819 -7843022.637 -22923136.999 10 0 59362 76500.00000 0 9702699.610 -5626771.757 -22898710.403 10 0 59362 77400.00000 0 11595493.158 -3565178.812 -22429079.060 10 0 59362 78300.00000 0 13570310.481 -1703717.582 -21523442.472 10 0 59362 79200.00000 0 15568634.801 -77553.026 -20199474.520 10 0 59362 80100.00000 0 17527743.905 1289696.065 -18482974.852 10 0 59362 81000.00000 0 19383227.557 2386700.417 -16407362.643 10 0 59362 81900.00000 0 21071592.922 3214640.255 -14013022.688 10 0 59362 82800.00000 0 22532849.112 3786894.353 -11346516.699 10 0 59362 83700.00000 0 23712962.829 4128212.987 -8459675.185 10 0 59362 84600.00000 0 24566082.529 4273411.267 -5408587.736 10 0 59362 85500.00000 0 25056437.993 4265639.320 -2252511.521 99